Location: Tuttlingen
(47.9853°N, 8.8165°E)
Time: 23:30:41
(UTC+02:00)

Envisat - Visible Passes

Search period start: 20 May 2018 00:00
Search period end: 30 May 2018 00:00
Orbit: 764 x 766 km, 98.2° (Epoch: 20 May)

Date Brightness Start Highest point End Pass type
(mag) Time Alt. Az. Time Alt. Az. Time Alt. Az.
22 May 5.6 21:59:00 10° SW 22:02:26 18° W 22:05:54 10° NW visible
24 May 6.0 22:27:32 10° W 22:28:23 10° W 22:29:15 10° WNW visible
25 May 5.4 21:47:14 10° SW 21:51:10 22° W 21:55:07 10° NW visible
27 May 5.7 22:14:40 10° WSW 22:17:04 13° W 22:19:29 10° WNW visible
